sat.trackr.live / text

‹ back to catalog

STARLINK-34312

NORAD 64711 · 2025-142R

PAYLOAD ACTIVE UNKNOWN

§ Identity

Operator
Country
US
Launch date
2025-06-28
Launch site
AFWTR
Launch vehicle
Mass (kg)
RCS (m²)

Purposes: comms

External: N2YO · Heavens-Above · Gunter

§ Orbital elements

Epoch: 2026-05-25T05:06:37.476000Z

Period
96.11 min
Inclination
69.9999°
Eccentricity
0.0003980
Mean motion
14.98335623 rev/d
Perigee alt
569.3 km
Apogee alt
574.8 km
Semi-major
6,950.2 km
B*
2.5231e-4
RAAN
121.4908°
Arg perigee
261.7165°
Mean anomaly
98.3543°
Rev number
5,111

§ Raw data

STARLINK-343121 64711U 25142R   26145.21293375  .00002919  00000+0  25231-3 0  99992 64711  69.9999 121.4908 0003980 261.7165  98.3543 14.98335623 51119

JSON: /api/v1/satellites/64711 · /tle

For live sub-satellite position, see the globe view (requires WebGL).

§ Visibility from observer

Set your observer location to see the next 7 days of passes ≥ 10°. The values pass through the URL so the page stays shareable.

No JS? Fill the form by hand. The geolocation button needs JavaScript.